ONEWEB-0055, 45443

Orbit data source: Space-Track

ONEWEB-0055, 45443 is a payload satellite owned by One Web (UK) in LEO that was launched on Sat, 21 Mar 2020 UTC via a SOYUZ-2-1B launch vehicle from the Tyuratam Missile And Space Complex (TTMTR). Payload-class satellites include a variety of spacecraft equipped with specific instruments for various scientific and technological missions. These include communications satellites like Starlink; space stations such as the ISS; scientific satellites like the Hubble; Earth observation satellites from companies like Planet Labs, Umbra, and HawkEye 360; GPS; miniature CubeSats for education and research; and military/defense satellites.

Loading next visibility...
Identifier
45443, 2020-020V
Orbit
LEO
Country
Flag of UKUK
Related business
Manufacturer
One Web
Mission
Operational Commercial Communications
Bus & Motor
ARROW, Unknown motor
Mass
148 kg wet, ~140 kg dry
Launch date (UTC)
2020-03-21 (6 years ago)
Launch vehicle
SOYUZ-2-1B
Launch site
Tyuratam Missile And Space Complex (TTMTR)
Object type
Payload
Rocket body
Debris
Shape & HBR
Trap Box + 2 Pan, 6.7 m
Radar Cross Section
3.464 m², Large (>1 m²)

Expand to show TLE details & history
Last TLE update: 10 hours ago

TLE from 10 hours ago
0 ONEWEB-0055
1 45443U 20020V   26254.77053392  .00000233  00000-0  62115-3 0  9995
2 45443  87.8969   3.8557 0001771 103.5068 256.6257 13.11414252313965
Epoch: 2026-09-11T18:29Z
TLE epoch observation values (Epoch: 2026-09-11T18:29:34.130Z)
Latitude
-0.00007°
Longitude
95.67437°
Altitude
1,220.894 km
Speed
7.244 km/s
True Right ascension
00h 15m 25s
True Declination
0° 00' 00"
Sunlit
Object was in full shadow at epoch
Visualization orbit readout
Latitude
Unknown
Longitude
Unknown
Altitude
Unknown
Speed
Unknown
Apparent Right ascension
Unknown
Apparent Declination
Unknown
Sunlit
N/A
Visualization observer readout
Local Sidereal Time
20:52:41
Azimuth
Unknown
Elevation
Unknown
Doppler factor
Unknown
Orbital elements
Apogee altitude
1,216.156 km
Perigee altitude
1,213.467 km
Semi-major axis
7,592.948 km
Eccentricity
0.00018
Inclination
87.8969°
RAAN
3.8557°
Arg. of periapsis
103.5068°
True anomaly
256.60596°
Mean anomaly
256.6257°
Eccentric anomaly
256.61583°
Mean motion
3.28041 °/min
Orbital period
109.74 mins
BSTAR
0.00062115
Loading maneuver chart data...
Computing Atmospheric mass density...
Loading historical data...
Loading historical data...
Loading historical data...
Loading historical data...
Loading historical data...
Loading historical data...
Loading historical data...

Documentation

Showing up to 5 results
|